Location: Allison Elementary School
(34.0784°N, 117.7317°W)
Time: 11:42:43
(UTC+00:00)

Cosmos 1151 Rocket - Pass Details

Date: 15 November 2019
Orbit: 593 x 616 km, 82.5° (Epoch: 10 December)

Event Time Altitude Azimuth Distance (km) Brightness Sun altitude
Rises 01:54:05 0° 169° (S) 2,847 6.5 -13.9°
Reaches altitude 10° 01:56:22 10° 162° (SSE) 1,952 5.6 -14.4°
Maximum altitude 02:00:25 41° 92° (E) 888 3.4 -15.2°
Enters shadow 02:04:06 13° 24° (NNE) 1,812 5.1 -15.9°
